Regional Weather Roundup
Issued by NWS

Home | Current Version | Previous Version | Graphics & Text | Print | Product List | Glossary On
Versions: 1 2 3 4 5 6 7 8 9 10 11 12 13 14 15 16 17 18 19 20 21 22 23 24 25 26 27 28 29 30 31 32 33 34 35 36 37 38 39 40 41 42 43 44 45 46 47 48 49 50
000
ASUS43 KIND 261809
RWRIN

WEATHER ROUNDUP FOR INDIANA
NATIONAL WEATHER SERVICE INDIANAPOLIS IN
100 PM EST THU FEB 26 2015

NOTE: "FAIR" INDICATES FEW OR NO CLOUDS BELOW 12,000 FEET WITH NO
SIGNIFICANT WEATHER AND/OR OBSTRUCTIONS TO VISIBILITY.

* - STATION DOES NOT REPORT WEATHER SUCH AS PRECIPITATION OR FOG.

+ - STATION NOT QUALITY CONTROLLED BY THE NATIONAL WEATHER SERVICE.
    USE DATA WITH CAUTION...ESPECIALLY DEWPOINT AND RELATIVE
    HUMIDITY OBSERVATIONS.

INZ001>003-010>013-019-020-261900-
NORTHWEST INDIANA

CITY           SKY/WX    TMP DP  RH WIND       PRES   REMARKS
GARY /AIRPORT/ CLOUDY    19   7  58 N14G25    30.24R WCI   6
KNOX *+          N/A     18  -4  38 N10       30.19S WCI   6
LA PORTE +     MOSUNNY   19  10  68 N7        30.20R WCI   9
6HR MIN TEMP:  14; 6HR MAX TEMP:  19;

MICHIGAN CITY+ CLOUDY    14   3  62 N13       30.23R WCI   0
MONTICELLO +   FLURRIES  18   9  66 CALM      30.17S
6HR MIN TEMP:  15; 6HR MAX TEMP:  18;

RENSSELAER +   FLURRIES  19  16  86 N9        30.20R WCI   9
VALPARAISO     MIX PCPN  16   1  51 N10G21    30.21R WCI   4
6HR MIN TEMP:  14; 6HR MAX TEMP:  17; 6HR PCP: TRACE;


$$

LMZ046-743>745-261900-
SOUTHERN LAKE MICHIGAN

STATION/POSITION TIME  TEMP WIND        PRES
                       AIR  DIR/SP/G
                 (UTC) (F)  (DEG/KT/KT) (MB)
MICHIGAN CITY    1800   12  360/ 14/ 17   N/A

$$

INZ004-005-014>016-021>024-261900-
NORTH CENTRAL INDIANA

CITY           SKY/WX    TMP DP  RH WIND       PRES   REMARKS
ELKHART        SUNNY     16   3  57 N6        30.18S WCI   7
GOSHEN         CLOUDY    15   6  67 N6        30.17R WCI   6
6HR MIN TEMP:  12; 6HR MAX TEMP:  15; 6HR PCP: TRACE;

LOGANSPORT +   CLOUDY    19   7  58 NE6       30.17R WCI  11
PERU/GRISSOM   CLOUDY    17   6  62 NE10      30.14S WCI   5
6HR MIN TEMP:  14; 6HR MAX TEMP:  17; 6HR PCP: TRACE;

ROCHESTER +    PTSUNNY   21  10  63 N8        30.17S WCI  12
SOUTH BEND     MOSUNNY   16   5  62 NW9       30.19S WCI   4
6HR MIN TEMP:  11; 6HR MAX TEMP:  16; 6HR PCP:  0.02;

WARSAW +       PTSUNNY   18   9  68 NW6       30.16S WCI   9

$$

INZ006>009-017-018-025>027-261900-
NORTHEAST INDIANA

CITY           SKY/WX    TMP DP  RH WIND       PRES   REMARKS
ANGOLA *+      SUNNY     14   1  57 N5        30.13F WCI   6
AUBURN +       SUNNY     18   5  57 N5        30.15F WCI  11
FORT WAYNE     PTSUNNY   16   5  62 N8        30.16R WCI   5
6HR MIN TEMP:  11; 6HR MAX TEMP:  16; 6HR PCP:  0.02;

HUNTINGTON +   PTSUNNY   16   2  54 NE7       30.15R WCI   7
6HR MIN TEMP:  12; 6HR MAX TEMP:  16;


$$

INZ028-029-035-036-043>045-051>053-261900-
WEST CENTRAL INDIANA

CITY           SKY/WX    TMP DP  RH WIND       PRES   REMARKS
CRAWFORDSVL +  CLOUDY    18   5  58 N8        30.15R WCI   7
6HR MIN TEMP:  16; 6HR MAX TEMP:  18;

GREENCASTLE +  CLOUDY    19   9  63 NE12      30.14R WCI   7
LAFAYETTE      CLOUDY    19  12  74 N10       30.18R WCI   7
6HR MIN TEMP:  17; 6HR MAX TEMP:  19; 6HR PCP: TRACE;

TERRE HAUTE    CLOUDY    23  12  62 NE10      30.16R WCI  12
6HR MIN TEMP:  20; 6HR MAX TEMP:  23; 6HR PCP: TRACE;


$$

INZ030>032-037>040-046>048-054>057-064-065-261900-
CENTRAL INDIANA

CITY           SKY/WX    TMP DP  RH WIND       PRES   REMARKS
ANDERSON       PTSUNNY   18   7  62 NE12G23   30.13R WCI   5
CP ATTERBURY + CLOUDY    21  12  68 N12       30.12F WCI   9
COLUMBUS       CLOUDY    19  10  68 N14       30.12S WCI   6
FRANKFORT +    MOSUNNY   19  10  67 N8        30.17R WCI   9
6HR MIN TEMP:  16; 6HR MAX TEMP:  19;

GREENWOOD *+   CLOUDY    19   7  58 N9        30.12R WCI   9
INDIANAPOLIS   PTSUNNY   20  10  65 N8        30.12R WCI  10
6HR MIN TEMP:  16; 6HR MAX TEMP:  20; 6HR PCP:  0.03;

-EAGLE CREEK   CLOUDY    19  10  68 N10       30.13R WCI   7
6HR MIN TEMP:  15; 6HR MAX TEMP:  19; 6HR PCP: TRACE;

KOKOMO *+      SUNNY     19   9  63 NE10      30.15S WCI   8
6HR MIN TEMP:  12; 6HR MAX TEMP:  19;

MARION +       CLOUDY    16   6  66 NE13      30.15R WCI   2
MT COMFORT *+  MOSUNNY   19   3  49 N10       30.13R WCI   8
SHELBYVILLE    CLOUDY    20   9  62 N10       30.11S WCI   9
6HR MIN TEMP:  17; 6HR MAX TEMP:  20; 6HR PCP: TRACE;

ZIONSVILLE +   CLOUDY    18   8  64 N9        30.14R WCI   7
6HR MIN TEMP:  15; 6HR MAX TEMP:  18;


$$

INZ033-034-041-042-049-050-058-059-261900-
EAST CENTRAL INDIANA

CITY           SKY/WX    TMP DP  RH WIND       PRES   REMARKS
MUNCIE         CLOUDY    16   7  67 NE10      30.12R WCI   4
6HR MIN TEMP:  12; 6HR MAX TEMP:  16; 6HR PCP: TRACE;


$$

INZ060-061-067>069-081>083-085>088-261900-
SOUTHWEST INDIANA

CITY           SKY/WX    TMP DP  RH WIND       PRES   REMARKS
EVANSVILLE     CLOUDY    30  21  69 N14       30.12S WCI  19
6HR MIN TEMP:  28; 6HR MAX TEMP:  30;

HUNTINGBURG *+ PTSUNNY   28  19  69 N14       30.10S WCI  17
6HR MIN TEMP:  23; 6HR MAX TEMP:  30;

WASHINGTON +   CLOUDY    25  14  62 N13       30.12S WCI  13
6HR MIN TEMP:  23; 6HR MAX TEMP:  25;


$$

INZ062-063-066-070>080-084-089>092-261900-
SOUTH CENTRAL AND SOUTHEAST INDIANA

CITY           SKY/WX    TMP DP  RH WIND       PRES   REMARKS
BLOOMINGTON    CLOUDY    23  14  68 N9        30.10R WCI  13
6HR MIN TEMP:  20; 6HR MAX TEMP:  23; 6HR PCP: TRACE;

NORTH VERNON + CLOUDY    21  12  68 NW13      30.10R WCI   9
SEYMOUR +      CLOUDY    23  12  63 N13       30.11S WCI  11

$$



USA.gov is the U.S. government's official web portal to all federal, state and local government web resources and services.